Tracking 28081 objects as of 26-Sep-2023
HD Live streaming from Space Station
objects crossing your sky now

STARLINK-3336

Track STARLINK-3336 now!
10-day predictions
STARLINK-3336 is classified as:


NORAD ID: 50818
Int'l Code: 2022-001R
Perigee: 545.8 km
Apogee: 547.9 km
Inclination: 53.2 °
Period: 95.4 minutes
Semi major axis: 6917 km
RCS: Unknown
Launch date: January 6, 2022
Source: United States (US)
Launch site: AIR FORCE EASTERN TEST RANGE (AFETR)
Your satellite tracking list
Your tracking list is empty




NASA's NSSDC Master Catalog

Two Line Element Set (TLE):
1 50818U 22001R   23268.59967334  .00003870  00000-0  26102-3 0  9996
2 50818  53.2169 231.8212 0001497  92.9582 267.1582 15.08848225 95126
Source of the keplerian elements: AFSPC